N5PLO-10 Weather Reports


time (UTC)temp
C
wind
direction
speed
KPH
gust
KPH
rain 1hr
cm
rain 24hr
cm
rain mn
cm
humidity
%
barometer
mb
20260506110449 23 240 0.0 0.0 0.00 0.00 0.00 98 1013.4
20260506105946 23 286 0.0 0.0 0.00 0.00 0.00 98 1013.7
20260506105442 23 289 0.0 1.6 0.00 0.00 0.00 98 1013.5
20260506104939 23 304 0.0 0.0 0.00 0.00 0.00 98 1013.3
20260506104438 23 251 0.0 0.0 0.00 0.00 0.00 98 1013.5
20260506103936 23 256 0.0 0.0 0.00 0.00 0.00 98 1013.6
20260506103432 23 221 0.0 1.6 0.00 0.00 0.00 98 1013.5
20260506102929 23 295 0.0 0.0 0.00 0.00 0.00 97 1013.3
20260506102427 23 279 0.0 1.6 0.00 0.00 0.00 97 1013.4
20260506101924 23 232 0.0 1.6 0.00 0.00 0.00 97 1013.4
20260506101420 23 229 0.0 0.0 0.00 0.00 0.00 97 1013.6
20260506100918 23 229 0.0 0.0 0.00 0.00 0.00 97 1013.4
20260506100416 23 229 0.0 0.0 0.00 0.00 0.00 96 1013.6
20260506095914 23 229 0.0 0.0 0.00 0.00 0.00 96 1013.5
20260506095412 23 228 0.0 0.0 0.00 0.00 0.00 96 1013.5
20260506094908 24 248 0.0 0.0 0.00 0.00 0.00 96 1013.2
20260506094407 24 231 0.0 1.6 0.00 0.00 0.00 95 1013.2
20260506093904 24 221 1.6 1.6 0.00 0.00 0.00 95 1013.0
20260506093402 24 244 0.0 0.0 0.00 0.00 0.00 95 1013.2
20260506092859 24 297 0.0 3.2 0.00 0.00 0.00 95 1013.1
20260506092357 24 273 0.0 0.0 0.00 0.00 0.00 95 1013.0
20260506091853 24 242 0.0 1.6 0.00 0.00 0.00 95 1013.0
20260506091352 24 39 4.8 11.3 0.00 0.00 0.00 95 1013.0
20260506090848 25 254 0.0 0.0 0.00 0.00 0.00 95 1013.2
20260506090346 25 266 1.6 3.2 0.00 0.00 0.00 94 1013.4
20260506085843 25 256 0.0 0.0 0.00 0.00 0.00 95 1013.4
20260506085339 25 279 0.0 0.0 0.00 0.00 0.00 94 1013.3
20260506084836 25 268 0.0 1.6 0.00 0.00 0.00 94 1013.4
20260506084332 25 331 3.2 4.8 0.00 0.00 0.00 94 1013.1
20260506083829 25 209 0.0 1.6 0.00 0.00 0.00 94 1013.4
20260506083326 25 137 1.6 1.6 0.00 0.00 0.00 94 1013.4
20260506082824 25 220 0.0 1.6 0.00 0.00 0.00 94 1013.4
20260506082320 25 189 1.6 3.2 0.00 0.00 0.00 94 1013.4
20260506081816 25 233 0.0 0.0 0.00 0.00 0.00 94 1013.6
20260506081315 25 232 0.0 0.0 0.00 0.00 0.00 94 1013.6
20260506080812 25 245 0.0 0.0 0.00 0.00 0.00 94 1013.6
20260506080308 25 253 0.0 0.0 0.00 0.00 0.00 94 1013.9
20260506073252 25 324 0.0 0.0 0.00 0.00 0.00 94 1014.1
20260506072749 25 237 0.0 1.6 0.00 0.00 0.00 94 1014.4
20260506072246 25 243 0.0 0.0 0.00 0.00 0.00 93 1014.3
20260506071744 25 325 0.0 1.6 0.00 0.00 0.00 93 1014.2
20260506071242 25 275 0.0 0.0 0.00 0.00 0.00 93 1014.5
20260506070739 25 339 0.0 1.6 0.00 0.00 0.00 93 1014.4
20260506070236 25 63 1.6 3.2 0.00 0.00 0.00 93 1014.3
20260506062212 25 266 1.6 3.2 0.00 0.00 0.00 93 1014.5
20260506061708 25 230 0.0 3.2 0.00 0.00 0.00 93 1014.4
20260506061206 25 224 1.6 1.6 0.00 0.00 0.00 93 1014.7
20260506060705 25 249 0.0 1.6 0.00 0.00 0.00 93 1014.7
20260506060201 25 213 0.0 3.2 0.00 0.00 0.00 93 1014.9
20260506051133 25 229 0.0 1.6 0.00 0.00 0.00 93 1015.0
20260506050631 25 259 0.0 3.2 0.00 0.00 0.00 93 1015.0
20260506050128 25 237 0.0 3.2 0.00 0.00 0.00 93 1015.0
20260506045121 25 246 1.6 3.2 0.00 0.00 0.00 92 1014.7
20260506044619 25 44 1.6 3.2 0.00 0.00 0.00 92 1014.5
20260506044116 25 200 1.6 1.6 0.00 0.00 0.00 91 1015.0
20260506043613 25 227 0.0 1.6 0.00 0.00 0.00 91 1015.0
20260506043112 25 208 1.6 3.2 0.00 0.00 0.00 91 1014.9
20260506042610 25 192 1.6 3.2 0.00 0.00 0.00 91 1015.1
20260506042108 25 117 0.0 4.8 0.00 0.00 0.00 91 1015.1
20260506041606 25 289 0.0 1.6 0.00 0.00 0.00 91 1014.7
20260506041103 25 311 0.0 1.6 0.00 0.00 0.00 91 1014.7
20260506040601 25 166 1.6 4.8 0.00 0.00 0.00 91 1014.7
20260506040056 25 265 1.6 4.8 0.00 0.00 0.00 91 1014.8
20260506035554 25 255 0.0 1.6 0.00 0.00 0.00 90 1014.9
20260506035050 25 277 0.0 1.6 0.00 0.00 0.00 90 1014.8
20260506034548 25 239 0.0 1.6 0.00 0.00 0.00 90 1014.6
20260506034044 25 182 1.6 1.6 0.00 0.00 0.00 90 1014.7
20260506033542 25 255 0.0 3.2 0.00 0.00 0.00 90 1014.6
20260506033038 25 207 0.0 1.6 0.00 0.00 0.00 89 1014.6
20260506032536 25 201 1.6 9.7 0.00 0.00 0.00 89 1014.6
20260506032032 25 226 1.6 4.8 0.00 0.00 0.00 89 1014.4
20260506031530 25 242 1.6 4.8 0.00 0.00 0.00 89 1014.4
20260506031027 25 329 0.0 1.6 0.00 0.00 0.00 89 1014.4
20260506030525 25 232 1.6 4.8 0.00 0.00 0.00 89 1014.1
20260506030022 26 251 1.6 1.6 0.00 0.00 0.00 88 1014.2
20260506025519 25 270 0.0 1.6 0.00 0.00 0.00 88 1014.1
20260506025015 26 262 0.0 1.6 0.00 0.00 0.00 88 1014.1
20260506024512 26 270 1.6 8.0 0.00 0.00 0.00 88 1013.9
20260506024008 26 197 0.0 0.0 0.00 0.00 0.00 88 1013.9
20260506023505 26 219 1.6 4.8 0.00 0.00 0.00 87 1013.5
20260506023002 26 123 1.6 3.2 0.00 0.00 0.00 87 1013.5
20260506022500 26 245 0.0 8.0 0.00 0.00 0.00 87 1013.4
20260506021957 26 248 0.0 1.6 0.00 0.00 0.00 87 1013.4
20260506021454 26 238 0.0 1.6 0.00 0.00 0.00 86 1013.3
20260506020952 26 54 1.6 1.6 0.00 0.00 0.00 86 1013.3
20260506020449 26 238 0.0 0.0 0.00 0.00 0.00 86 1013.1
20260506015946 26 224 0.0 0.0 0.00 0.00 0.00 86 1013.1
20260506015443 26 221 0.0 1.6 0.00 0.00 0.00 85 1013.0
20260506014940 26 279 0.0 0.0 0.00 0.00 0.00 85 1013.0
20260506014437 26 207 0.0 1.6 0.00 0.00 0.00 84 1012.9
20260506013933 26 208 0.0 1.6 0.00 0.00 0.00 84 1012.6
20260506013432 26 242 0.0 1.6 0.00 0.00 0.00 84 1012.6
20260506012928 26 267 0.0 1.6 0.00 0.00 0.00 84 1012.7
20260506012424 26 281 0.0 1.6 0.00 0.00 0.00 84 1012.4
20260506011921 26 236 0.0 1.6 0.00 0.00 0.00 84 1012.5
20260506011418 26 268 0.0 1.6 0.00 0.00 0.00 83 1012.3
20260506010915 26 281 0.0 1.6 0.00 0.00 0.00 83 1012.2
20260506010414 26 282 0.0 1.6 0.00 0.00 0.00 83 1012.2
20260506005910 26 145 1.6 3.2 0.00 0.00 0.00 83 1012.6
20260506005408 26 305 0.0 3.2 0.00 0.00 0.00 83 1012.5
20260506004903 26 286 0.0 1.6 0.00 0.00 0.00 83 1012.4
20260506004401 26 259 3.2 3.2 0.00 0.00 0.00 82 1012.5
20260506003857 27 230 0.0 1.6 0.00 0.00 0.00 82
20260506003353 27 224 0.0 1.6 0.00 0.00 0.00 82
20260506002849 27 231 0.0 1.6 0.00 0.00 0.00 82
20260506002346 27 314 1.6 1.6 0.00 0.00 0.00 82
20260506001842 27 237 1.6 3.2 0.00 0.00 0.00 82
20260506001339 27 223 0.0 1.6 0.00 0.00 0.00 82
20260506000836 27 187 1.6 1.6 0.00 0.00 0.00 82
20260506000334 27 275 0.0 3.2 0.00 0.00 0.00 82
20260505235830 27 271 1.6 4.8 0.00 0.00 0.00 82
20260505235328 27 253 6.4 8.0 0.00 0.00 0.00 82
20260505234824 27 242 1.6 3.2 0.00 0.00 0.00 82
20260505234323 27 329 0.0 1.6 0.00 0.00 0.00 82
20260505233819 27 164 1.6 3.2 0.00 0.00 0.00 81
20260505233317 27 235 0.0 3.2 0.00 0.00 0.00 81
20260505232814 27 243 1.6 1.6 0.00 0.00 0.00 82
20260505232311 27 286 0.0 1.6 0.00 0.00 0.00 81
20260505231808 27 255 1.6 3.2 0.00 0.00 0.00 81
20260505231307 28 216 1.6 3.2 0.00 0.00 0.00 81
20260505230804 28 187 0.0 1.6 0.00 0.00 0.00 80
20260505230301 28 208 0.0 0.0 0.00 0.00 0.00 80
20260505225757 28 241 0.0 4.8 0.00 0.00 0.00 80
20260505225255 28 231 1.6 3.2 0.00 0.00 0.00 79
20260505224749 28 292 1.6 3.2 0.00 0.00 0.00 79
20260505224248 28 258 1.6 3.2 0.00 0.00 0.00 77
20260505223745 28 212 1.6 1.6 0.00 0.00 0.00 76
20260505223241 28 222 1.6 3.2 0.00 0.00 0.00 76
20260505222737 28 214 1.6 3.2 0.00 0.00 0.00 76
20260505222234 29 198 1.6 1.6 0.00 0.00 0.00 77
20260505221731 29 244 0.0 1.6 0.00 0.00 0.00 77
20260505221227 28 215 1.6 3.2 0.00 0.00 0.00 78
20260505220724 28 263 0.0 1.6 0.00 0.00 0.00 78
20260505220222 29 243 1.6 4.8 0.00 0.00 0.00 77
20260505215720 28 233 0.0 3.2 0.00 0.00 0.00 78
20260505215217 28 237 1.6 4.8 0.00 0.00 0.00 78
20260505214715 28 274 0.0 1.6 0.00 0.00 0.00 78
20260505214212 29 220 1.6 3.2 0.00 0.00 0.00 77
20260505213710 29 234 1.6 3.2 0.00 0.00 0.00 77
20260505213207 30 164 3.2 9.7 0.00 0.00 0.00 76 1013.1
20260505212703 30 251 3.2 3.2 0.00 0.00 0.00 76 1013.1
20260505212200 29 236 0.0 1.6 0.00 0.00 0.00 76 1013.1
20260505211657 29 237 4.8 8.0 0.00 0.00 0.00 75 1013.1
20260505211154 29 258 0.0 4.8 0.00 0.00 0.00 76 1013.1
20260505210650 30 258 1.6 1.6 0.00 0.00 0.00 75 1013.1
20260505210147 30 237 1.6 1.6 0.00 0.00 0.00 75 1013.1
20260505205644 30 263 0.0 3.2 0.00 0.00 0.00 75 1013.1
20260505205143 30 235 0.0 3.2 0.00 0.00 0.00 75 1013.1
20260505204639 29 205 1.6 1.6 0.00 0.00 0.00 76 1013.1
20260505204137 29 238 0.0 3.2 0.00 0.00 0.00 76 1013.1
20260505203634 30 234 1.6 3.2 0.00 0.00 0.00 75 1013.1
20260505203131 30 278 0.0 3.2 0.00 0.00 0.00 75 1013.1
20260505202626 30 242 0.0 9.7 0.00 0.00 0.00 75 1013.1
20260505202122 30 232 1.6 8.0 0.00 0.00 0.00 76 1013.2
20260505201620 30 244 1.6 11.3 0.00 0.00 0.00 76 1013.3
20260505201117 29 250 1.6 4.8 0.00 0.00 0.00 76 1013.2
20260505200615 29 253 0.0 4.8 0.00 0.00 0.00 77 1013.4
20260505200112 29 147 3.2 11.3 0.00 0.00 0.00 77 1013.6
20260505195608 29 214 1.6 3.2 0.00 0.00 0.00 77 1013.5
20260505195106 28 253 1.6 3.2 0.00 0.00 0.00 78 1013.5
20260505194603 29 212 0.0 1.6 0.00 0.00 0.00 78 1013.8
20260505194058 29 249 3.2 3.2 0.00 0.00 0.00 77 1013.7
20260505193555 29 270 1.6 3.2 0.00 0.00 0.00 78 1013.5
20260505193052 28 305 1.6 1.6 0.00 0.00 0.00 79 1013.4
20260505192551 28 61 1.6 3.2 0.00 0.00 0.00 78 1013.8
20260505192048 28 260 1.6 4.8 0.00 0.00 0.00 79 1013.9
20260505191546 28 233 0.0 1.6 0.00 0.00 0.00 79 1013.9
20260505191044 27 264 0.0 1.6 0.00 0.00 0.00 80 1014.0
20260505190538 27 273 1.6 1.6 0.00 0.00 0.00 80 1013.8
20260505190035 27 253 0.0 3.2 0.00 0.00 0.00 81 1013.9
20260505185531 28 281 1.6 3.2 0.00 0.00 0.00 80 1013.9
20260505185028 28 250 1.6 4.8 0.00 0.00 0.00 79 1013.9
20260505184524 28 189 0.0 3.2 0.00 0.00 0.00 78 1013.7
20260505184021 28 205 1.6 3.2 0.00 0.00 0.00 79 1013.8
20260505183518 28 308 1.6 1.6 0.00 0.00 0.00 79 1013.8
20260505183016 28 16 3.2 4.8 0.00 0.00 0.00 79 1014.0
20260505182512 28 346 1.6 3.2 0.00 0.00 0.00 79 1013.9
20260505182009 28 265 0.0 3.2 0.00 0.00 0.00 80 1014.0
20260505181505 28 249 4.8 8.0 0.00 0.00 0.00 79 1014.0
20260505181003 27 200 0.0 3.2 0.00 0.00 0.00 81 1013.9
20260505180458 27 219 0.0 1.6 0.00 0.00 0.00 81 1013.8
20260505175956 27 251 0.0 3.2 0.00 0.00 0.00 81 1013.9
20260505175451 27 342 0.0 1.6 0.00 0.00 0.00 82 1013.7
20260505174948 27 270 0.0 1.6 0.00 0.00 0.00 83 1014.0
20260505174445 27 234 0.0 1.6 0.00 0.00 0.00 83 1013.9
20260505173941 27 267 1.6 3.2 0.00 0.00 0.00 83 1014.1
20260505173438 27 240 0.0 3.2 0.00 0.00 0.00 83 1014.0
20260505172935 27 223 1.6 3.2 0.00 0.00 0.00 83 1014.2
20260505172434 27 248 1.6 3.2 0.00 0.00 0.00 82 1014.0
20260505171932 27 244 0.0 1.6 0.00 0.00 0.00 84 1014.2
20260505171430 26 261 0.0 3.2 0.00 0.00 0.00 85 1014.0
20260505170926 26 255 0.0 1.6 0.00 0.00 0.00 84 1014.2
20260505170423 26 255 1.6 1.6 0.00 0.00 0.00 84 1014.2
20260505165919 26 66 1.6 3.2 0.00 0.00 0.00 84 1014.2
20260505165415 26 236 0.0 0.0 0.00 0.00 0.00 85 1014.2
20260505164910 26 280 1.6 3.2 0.00 0.00 0.00 86 1014.2
20260505164407 26 239 0.0 1.6 0.00 0.00 0.00 87 1014.4
20260505163905 26 239 1.6 1.6 0.00 0.00 0.00 87 1014.3
20260505163404 26 239 0.0 1.6 0.00 0.00 0.00 87 1014.2
20260505162902 26 231 0.0 1.6 0.00 0.00 0.00 86 1014.4
20260505162358 26 239 0.0 1.6 0.00 0.00 0.00 86 1014.3
20260505161855 26 210 1.6 1.6 0.00 0.00 0.00 86 1013.9
20260505161351 26 209 0.0 1.6 0.00 0.00 0.00 86 1014.0
20260505160849 25 230 0.0 1.6 0.00 0.00 0.00 87 1014.0
20260505160347 25 212 1.6 3.2 0.00 0.00 0.00 87 1014.0
20260505153326 25 281 0.0 1.6 0.00 0.00 0.00 87 1013.7
20260505152823 25 265 0.0 1.6 0.00 0.00 0.00 86 1013.8
20260505152320 25 255 0.0 4.8 0.00 0.00 0.00 86 1013.8
20260505151814 25 271 0.0 1.6 0.00 0.00 0.00 86 1013.7
20260505151311 25 281 1.6 3.2 0.00 0.00 0.00 86 1013.6
20260505150808 25 282 0.0 1.6 0.00 0.00 0.00 87 1013.5
20260505150305 25 247 0.0 3.2 0.00 0.00 0.00 87 1013.7
20260505140229 25 232 1.6 4.8 0.00 0.00 0.00 88 1013.0
20260505130153 23 239 0.0 1.6 0.00 0.00 0.00 92 1013.0
20260505124643 23 229 1.6 1.6 0.00 0.00 0.00 93 1012.5
20260505124139 22 300 0.0 1.6 0.00 0.00 0.00 93 1012.8
20260505123630 22 252 0.0 1.6 0.00 0.00 0.00 94 1013.1
20260505123127 22 285 0.0 0.0 0.00 0.00 0.00 94 1012.9
20260505122623 22 288 0.0 0.0 0.00 0.00 0.00 94 1013.0
20260505122120 22 110 4.8 8.0 0.00 0.00 0.00 95 1013.2
20260505121611 22 246 0.0 0.0 0.00 0.00 0.00 95 1012.8
20260505121108 22 236 0.0 0.0 0.00 0.00 0.00 95 1012.8
20260505120604 22 252 0.0 0.0 0.00 0.00 0.00 95 1012.5
20260505120100 22 254 0.0 0.0 0.00 0.00 0.00 95 1012.6
20260505115554 22 244 0.0 1.6 0.00 0.00 0.00 95 1012.6
20260505115052 22 255 0.0 0.0 0.00 0.00 0.00 95 1012.4
20260505114549 22 263 0.0 1.6 0.00 0.00 0.00 95 1012.4
20260505114045 22 236 0.0 1.6 0.00 0.00 0.00 95 1012.9
20260505113542 22 271 0.0 0.0 0.00 0.00 0.00 95 1012.8
20260505113038 22 265 0.0 0.0 0.00 0.00 0.00 95 1012.6
20260505112534 22 261 0.0 1.6 0.00 0.00 0.00 94 1012.7
20260505112032 22 273 0.0 0.0 0.00 0.00 0.00 94 1012.7
20260505111526 22 267 0.0 3.2 0.00 0.00 0.00 94 1012.6
20260505111023 22 216 0.0 0.0 0.00 0.00 0.00 94 1012.8